Data No,UTC Date,UTC Time,Latitude,Longitude,Course(deg),Temp(degC)
720,2022/5/18,11:59,35-35.88N,139-47.26E,217,17.641
721,2022/5/18,12:00,35-35.71N,139-47.16E,197,18.338
722,2022/5/18,12:01,35-35.50N,139-47.14E,179,18.75
723,2022/5/18,12:02,35-35.30N,139-47.19E,160,18.584
724,2022/5/18,12:03,35-35.12N,139-47.34E,141,18.528
725,2022/5/18,12:04,35-34.93N,139-47.53E,141,17.608
726,2022/5/18,12:05,35-34.74N,139-47.77E,128,17.352
727,2022/5/18,12:06,35-34.59N,139-48.03E,126,17.661
728,2022/5/18,12:07,35-34.43N,139-48.28E,127,17.878
729,2022/5/18,12:08,35-34.27N,139-48.55E,126,17.881
730,2022/5/18,12:09,35-34.10N,139-48.82E,127,17.908
731,2022/5/18,12:10,35-33.93N,139-49.10E,127,17.901
732,2022/5/18,12:11,35-33.75N,139-49.38E,127,18.15
733,2022/5/18,12:12,35-33.58N,139-49.67E,125,18.305
734,2022/5/18,12:13,35-33.40N,139-49.97E,127,18.26
735,2022/5/18,12:14,35-33.22N,139-50.25E,128,18.494
736,2022/5/18,12:15,35-32.99N,139-50.47E,149,19.112
737,2022/5/18,12:16,35-32.71N,139-50.56E,169,19.008
738,2022/5/18,12:17,35-32.43N,139-50.62E,170,18.614
739,2022/5/18,12:18,35-32.15N,139-50.68E,170,18.532
740,2022/5/18,12:19,35-31.87N,139-50.74E,170,18.353
741,2022/5/18,12:20,35-31.58N,139-50.80E,171,18.541
742,2022/5/18,12:21,35-31.29N,139-50.83E,175,18.699
743,2022/5/18,12:22,35-30.99N,139-50.86E,177,18.602
744,2022/5/18,12:23,35-30.71N,139-50.84E,182,18.77
745,2022/5/18,12:24,35-30.42N,139-50.82E,185,18.788
746,2022/5/18,12:25,35-30.13N,139-50.77E,187,18.788
747,2022/5/18,12:26,35-29.83N,139-50.72E,188,18.621
748,2022/5/18,12:27,35-29.55N,139-50.61E,203,18.948
749,2022/5/18,12:28,35-29.31N,139-50.39E,223,18.881
750,2022/5/18,12:29,35-29.13N,139-50.13E,231,18.904
751,2022/5/18,12:30,35-28.95N,139-49.85E,230,18.585
752,2022/5/18,12:31,35-28.76N,139-49.58E,230,18.696
753,2022/5/18,12:32,35-28.57N,139-49.29E,230,18.687
754,2022/5/18,12:33,35-28.38N,139-49.01E,230,18.373
755,2022/5/18,12:34,35-28.19N,139-48.74E,230,18.182
756,2022/5/18,12:35,35-28.00N,139-48.44E,231,18.374
757,2022/5/18,12:36,35-27.82N,139-48.17E,230,18.186
758,2022/5/18,12:37,35-27.63N,139-47.88E,230,18.043
759,2022/5/18,12:38,35-27.43N,139-47.58E,232,18.059
760,2022/5/18,12:39,35-27.26N,139-47.30E,232,18.198
761,2022/5/18,12:40,35-27.07N,139-47.00E,233,18.32
762,2022/5/18,12:41,35-26.91N,139-46.72E,233,18.297
763,2022/5/18,12:42,35-26.72N,139-46.42E,233,18.187
764,2022/5/18,12:43,35-26.54N,139-46.12E,233,18.215
765,2022/5/18,12:44,35-26.36N,139-45.83E,233,18.279
766,2022/5/18,12:45,35-26.16N,139-45.52E,231,18.322
767,2022/5/18,12:46,35-25.99N,139-45.24E,231,18.401
768,2022/5/18,12:47,35-25.80N,139-44.95E,231,18.511
769,2022/5/18,12:48,35-25.59N,139-44.61E,232,18.562
770,2022/5/18,12:49,35-25.40N,139-44.32E,232,18.67
771,2022/5/18,12:50,35-25.23N,139-44.05E,232,18.609
772,2022/5/18,12:51,35-25.05N,139-43.77E,232,18.518
773,2022/5/18,12:52,35-24.86N,139-43.47E,232,18.436
774,2022/5/18,12:53,35-24.60N,139-43.21E,210,18.436
775,2022/5/18,12:54,35-24.34N,139-43.06E,206,18.079
776,2022/5/18,12:55,35-24.10N,139-42.92E,205,18.312
777,2022/5/18,12:56,35-23.81N,139-42.74E,206,18.264
778,2022/5/18,12:57,35-23.52N,139-42.57E,207,18.314
779,2022/5/18,12:58,35-23.24N,139-42.39E,207,18.299
780,2022/5/18,12:59,35-22.97N,139-42.28E,192,18.157
781,2022/5/18,13:00,35-22.71N,139-42.30E,177,17.993
782,2022/5/18,13:01,35-22.41N,139-42.32E,176,18.338
783,2022/5/18,13:02,35-22.12N,139-42.34E,176,18.388
784,2022/5/18,13:03,35-21.82N,139-42.36E,176,18.245
785,2022/5/18,13:04,35-21.52N,139-42.38E,177,18.167
786,2022/5/18,13:05,35-21.21N,139-42.39E,177,18.044
787,2022/5/18,13:06,35-20.91N,139-42.41E,177,17.875
788,2022/5/18,13:07,35-20.60N,139-42.43E,177,17.871
789,2022/5/18,13:08,35-20.34N,139-42.44E,178,17.947
790,2022/5/18,13:09,35-20.10N,139-42.45E,177,17.964
791,2022/5/18,13:10,35-19.88N,139-42.50E,159,17.966
792,2022/5/18,13:11,35-19.71N,139-42.63E,146,18.051
793,2022/5/18,13:12,35-19.53N,139-42.78E,146,18.176
794,2022/5/18,13:13,35-19.34N,139-42.92E,146,18.372
795,2022/5/18,13:14,35-19.17N,139-43.06E,146,18.355
796,2022/5/18,13:15,35-18.99N,139-43.21E,146,18.433
797,2022/5/18,13:16,35-18.80N,139-43.36E,145,18.321
798,2022/5/18,13:17,35-18.63N,139-43.50E,145,18.038
799,2022/5/18,13:18,35-18.46N,139-43.64E,146,18.258
800,2022/5/18,13:19,35-18.28N,139-43.78E,146,18.11
801,2022/5/18,13:20,35-18.10N,139-43.93E,145,17.822
802,2022/5/18,13:21,35-17.93N,139-44.08E,145,18.078
803,2022/5/18,13:22,35-17.74N,139-44.23E,145,17.875
804,2022/5/18,13:23,35-17.57N,139-44.38E,145,18.064
805,2022/5/18,13:24,35-17.40N,139-44.53E,144,18.072
806,2022/5/18,13:25,35-17.22N,139-44.68E,145,18.006
807,2022/5/18,13:26,35-17.06N,139-44.83E,144,17.895
808,2022/5/18,13:27,35-16.88N,139-44.98E,143,17.741
809,2022/5/18,13:28,35-16.72N,139-45.14E,143,17.701
810,2022/5/18,13:29,35-16.54N,139-45.29E,142,17.655
811,2022/5/18,13:30,35-16.37N,139-45.45E,143,17.609
812,2022/5/18,13:31,35-16.21N,139-45.60E,142,17.494
813,2022/5/18,13:32,35-16.03N,139-45.77E,143,17.472
814,2022/5/18,13:33,35-15.87N,139-45.92E,142,17.63
815,2022/5/18,13:34,35-15.70N,139-46.08E,145,17.692
816,2022/5/18,13:35,35-15.50N,139-46.20E,156,17.725
817,2022/5/18,13:36,35-15.29N,139-46.25E,172,17.687
818,2022/5/18,13:37,35-15.08N,139-46.27E,177,17.629
819,2022/5/18,13:38,35-14.87N,139-46.28E,177,17.639
820,2022/5/18,13:39,35-14.65N,139-46.30E,178,17.655
821,2022/5/18,13:40,35-14.44N,139-46.31E,178,17.66
822,2022/5/18,13:41,35-14.22N,139-46.31E,178,17.658
823,2022/5/18,13:42,35-14.00N,139-46.32E,178,17.674
824,2022/5/18,13:43,35-13.81N,139-46.33E,178,17.661
825,2022/5/18,13:44,35-13.60N,139-46.33E,178,17.635
826,2022/5/18,13:45,35-13.38N,139-46.34E,179,17.601
827,2022/5/18,13:46,35-13.18N,139-46.34E,179,17.599
828,2022/5/18,13:47,35-12.96N,139-46.34E,181,17.621
829,2022/5/18,13:48,35-12.75N,139-46.31E,190,17.66
830,2022/5/18,13:49,35-12.53N,139-46.25E,192,17.683
831,2022/5/18,13:50,35-12.28N,139-46.17E,193,17.696
832,2022/5/18,13:51,35-12.02N,139-46.10E,193,17.656
833,2022/5/18,13:52,35-11.73N,139-46.02E,193,17.674
834,2022/5/18,13:53,35-11.47N,139-45.94E,193,17.678
835,2022/5/18,13:54,35-11.19N,139-45.85E,194,17.676
836,2022/5/18,13:55,35-10.91N,139-45.77E,193,17.582
837,2022/5/18,13:56,35-10.62N,139-45.68E,194,17.561
838,2022/5/18,13:57,35-10.35N,139-45.60E,194,17.647
839,2022/5/18,13:58,35-10.06N,139-45.51E,194,17.661
840,2022/5/18,13:59,35-09.78N,139-45.43E,193,17.679
841,2022/5/18,14:00,35-09.48N,139-45.33E,195,17.645
842,2022/5/18,14:01,35-09.22N,139-45.23E,198,17.578
843,2022/5/18,14:02,35-08.95N,139-45.11E,200,17.615
844,2022/5/18,14:03,35-08.68N,139-44.98E,199,17.701
845,2022/5/18,14:04,35-08.41N,139-44.85E,202,17.879
846,2022/5/18,14:05,35-08.14N,139-44.71E,202,18.033
847,2022/5/18,14:06,35-07.88N,139-44.58E,203,18.243
848,2022/5/18,14:07,35-07.62N,139-44.42E,208,18.492
849,2022/5/18,14:08,35-07.38N,139-44.23E,214,18.777
850,2022/5/18,14:09,35-07.14N,139-44.03E,213,18.909
851,2022/5/18,14:10,35-06.91N,139-43.84E,213,18.954
852,2022/5/18,14:11,35-06.68N,139-43.66E,213,19.018
853,2022/5/18,14:12,35-06.45N,139-43.46E,214,19.024
854,2022/5/18,14:13,35-06.22N,139-43.27E,213,19.24
855,2022/5/18,14:14,35-05.98N,139-43.08E,213,19.363
856,2022/5/18,14:15,35-05.74N,139-42.89E,213,19.291
857,2022/5/18,14:16,35-05.51N,139-42.71E,213,19.238
858,2022/5/18,14:17,35-05.27N,139-42.52E,213,19.182
859,2022/5/18,14:18,35-05.04N,139-42.32E,214,19.171
860,2022/5/18,14:19,35-04.81N,139-42.13E,214,19.157
861,2022/5/18,14:20,35-04.56N,139-41.93E,213,19.124
862,2022/5/18,14:21,35-04.34N,139-41.76E,212,19.073
863,2022/5/18,14:22,35-04.10N,139-41.57E,212,18.812
864,2022/5/18,14:23,35-03.85N,139-41.39E,209,18.615
865,2022/5/18,14:24,35-03.61N,139-41.23E,205,18.631
866,2022/5/18,14:25,35-03.34N,139-41.09E,202,18.647
867,2022/5/18,14:26,35-03.07N,139-40.99E,194,18.724
868,2022/5/18,14:27,35-02.80N,139-40.95E,182,18.795
869,2022/5/18,14:28,35-02.50N,139-40.99E,172,18.86
870,2022/5/18,14:29,35-02.22N,139-41.04E,172,18.908
871,2022/5/18,14:30,35-01.93N,139-41.08E,173,18.915
872,2022/5/18,14:31,35-01.63N,139-41.11E,174,18.953
873,2022/5/18,14:32,35-01.34N,139-41.15E,174,18.98
874,2022/5/18,14:33,35-01.03N,139-41.19E,174,19.049
875,2022/5/18,14:34,35-00.74N,139-41.22E,174,19.074
876,2022/5/18,14:35,35-00.43N,139-41.26E,174,19.097
877,2022/5/18,14:36,35-00.13N,139-41.30E,173,19.155
878,2022/5/18,14:37,34-59.82N,139-41.34E,173,19.132
879,2022/5/18,14:38,34-59.51N,139-41.42E,168,19.079
880,2022/5/18,14:39,34-59.22N,139-41.50E,166,19.134
881,2022/5/18,14:40,34-58.92N,139-41.59E,164,19.123
882,2022/5/18,14:41,34-58.62N,139-41.68E,165,19.134
883,2022/5/18,14:42,34-58.33N,139-41.77E,165,19.059
884,2022/5/18,14:43,34-58.04N,139-41.91E,156,19.035
885,2022/5/18,14:44,34-57.78N,139-42.07E,150,19.036
886,2022/5/18,14:45,34-57.51N,139-42.26E,147,19.029
887,2022/5/18,14:46,34-57.26N,139-42.46E,147,19.035
888,2022/5/18,14:47,34-57.00N,139-42.67E,147,19.033
889,2022/5/18,14:48,34-56.74N,139-42.88E,146,19.043
890,2022/5/18,14:49,34-56.49N,139-43.08E,145,19.033
891,2022/5/18,14:50,34-56.23N,139-43.30E,145,19.074
892,2022/5/18,14:51,34-55.97N,139-43.51E,146,19.148
893,2022/5/18,14:52,34-55.72N,139-43.72E,146,19.218
894,2022/5/18,14:53,34-55.45N,139-43.93E,146,19.224
895,2022/5/18,14:54,34-55.20N,139-44.13E,146,19.268
896,2022/5/18,14:55,34-54.94N,139-44.35E,146,19.262
897,2022/5/18,14:56,34-54.67N,139-44.56E,146,19.25
898,2022/5/18,14:57,34-54.42N,139-44.76E,146,19.285
899,2022/5/18,14:58,34-54.16N,139-44.97E,146,19.262
900,2022/5/18,14:59,34-53.89N,139-45.18E,147,19.24
901,2022/5/18,15:00,34-53.64N,139-45.39E,144,19.18
902,2022/5/18,15:01,34-53.39N,139-45.61E,144,19.236
903,2022/5/18,15:02,34-53.13N,139-45.83E,145,19.288
904,2022/5/18,15:03,34-52.88N,139-46.04E,145,19.284
905,2022/5/18,15:04,34-52.64N,139-46.26E,144,19.242
906,2022/5/18,15:05,34-52.39N,139-46.47E,145,19.179
907,2022/5/18,15:06,34-52.15N,139-46.68E,145,19.067
908,2022/5/18,15:07,34-51.92N,139-46.88E,142,18.937
909,2022/5/18,15:08,34-51.71N,139-47.11E,137,18.779
910,2022/5/18,15:09,34-51.51N,139-47.34E,136,18.867
911,2022/5/18,15:10,34-51.33N,139-47.60E,127,18.737
912,2022/5/18,15:11,34-51.18N,139-47.86E,123,18.689
913,2022/5/18,15:12,34-51.05N,139-48.14E,118,18.737
914,2022/5/18,15:13,34-50.93N,139-48.43E,118,18.789
915,2022/5/18,15:14,34-50.82N,139-48.72E,109,18.86
916,2022/5/18,15:15,34-50.74N,139-49.04E,108,18.967
917,2022/5/18,15:16,34-50.65N,139-49.34E,109,19.012
918,2022/5/18,15:17,34-50.56N,139-49.65E,109,19.058
919,2022/5/18,15:18,34-50.49N,139-49.97E,102,19.087
920,2022/5/18,15:19,34-50.45N,139-50.28E,98,19.091
921,2022/5/18,15:20,34-50.40N,139-50.62E,99,19.074
922,2022/5/18,15:21,34-50.38N,139-50.95E,93,19.084
923,2022/5/18,15:22,34-50.37N,139-51.26E,93,19.092
924,2022/5/18,15:23,34-50.35N,139-51.61E,93,19.13
925,2022/5/18,15:24,34-50.33N,139-51.93E,93,19.156
926,2022/5/18,15:25,34-50.31N,139-52.28E,93,19.125
927,2022/5/18,15:26,34-50.29N,139-52.61E,94,19.111
928,2022/5/18,15:27,34-50.27N,139-52.95E,92,19.107
929,2022/5/18,15:28,34-50.28N,139-53.29E,86,19.11
930,2022/5/18,15:29,34-50.30N,139-53.63E,87,19.107
931,2022/5/18,15:30,34-50.31N,139-53.97E,87,19.103
932,2022/5/18,15:31,34-50.33N,139-54.31E,86,19.094
933,2022/5/18,15:32,34-50.35N,139-54.65E,86,19.071
934,2022/5/18,15:33,34-50.37N,139-55.00E,85,19.013
935,2022/5/18,15:34,34-50.43N,139-55.38E,75,18.907
936,2022/5/18,15:35,34-50.53N,139-55.68E,66,18.921
937,2022/5/18,15:36,34-50.64N,139-55.99E,66,18.994
938,2022/5/18,15:37,34-50.75N,139-56.29E,67,19.065
939,2022/5/18,15:38,34-50.86N,139-56.62E,67,19.01
940,2022/5/18,15:39,34-50.98N,139-56.94E,67,19.009
941,2022/5/18,15:40,34-51.09N,139-57.25E,66,19.033
942,2022/5/18,15:41,34-51.20N,139-57.56E,66,19.119
943,2022/5/18,15:42,34-51.31N,139-57.88E,67,19.119
944,2022/5/18,15:43,34-51.42N,139-58.18E,67,19.131
945,2022/5/18,15:44,34-51.53N,139-58.49E,66,19.175
946,2022/5/18,15:45,34-51.64N,139-58.81E,66,19.137
947,2022/5/18,15:46,34-51.75N,139-59.13E,70,19.065
948,2022/5/18,15:47,34-51.84N,139-59.45E,71,19.052
949,2022/5/18,15:48,34-51.93N,139-59.79E,71,19.032
950,2022/5/18,15:49,34-52.02N,140-00.12E,71,19
951,2022/5/18,15:50,34-52.12N,140-00.45E,71,19.012
952,2022/5/18,15:51,34-52.21N,140-00.78E,71,19.069
953,2022/5/18,15:52,34-52.31N,140-01.11E,71,19.124
954,2022/5/18,15:53,34-52.40N,140-01.44E,71,19.057
955,2022/5/18,15:54,34-52.50N,140-01.77E,66,19.007
956,2022/5/18,15:55,34-52.64N,140-02.06E,57,18.995
957,2022/5/18,15:56,34-52.80N,140-02.35E,56,19.015
958,2022/5/18,15:57,34-52.96N,140-02.65E,57,19.048
959,2022/5/18,15:58,34-53.12N,140-02.94E,57,19.161
960,2022/5/18,15:59,34-53.27N,140-03.23E,57,19.261
961,2022/5/18,16:00,34-53.44N,140-03.55E,57,19.264
962,2022/5/18,16:01,34-53.59N,140-03.82E,56,19.221
963,2022/5/18,16:02,34-53.73N,140-04.13E,61,19.184
964,2022/5/18,16:03,34-53.87N,140-04.44E,61,19.132
965,2022/5/18,16:04,34-54.01N,140-04.74E,61,19.147
966,2022/5/18,16:05,34-54.16N,140-05.06E,61,19.175
967,2022/5/18,16:06,34-54.29N,140-05.35E,60,19.105
968,2022/5/18,16:07,34-54.43N,140-05.66E,61,19.077
969,2022/5/18,16:08,34-54.57N,140-05.97E,60,19.081
970,2022/5/18,16:09,34-54.71N,140-06.26E,60,19.114
971,2022/5/18,16:10,34-54.85N,140-06.57E,60,19.1
972,2022/5/18,16:11,34-54.99N,140-06.88E,61,19.094
973,2022/5/18,16:12,34-55.13N,140-07.18E,61,19.174
974,2022/5/18,16:13,34-55.26N,140-07.48E,60,19.174
975,2022/5/18,16:14,34-55.40N,140-07.78E,63,19.17
976,2022/5/18,16:15,34-55.53N,140-08.09E,64,19.158
977,2022/5/18,16:16,34-55.65N,140-08.40E,64,19.141
978,2022/5/18,16:17,34-55.77N,140-08.71E,63,19.14
979,2022/5/18,16:18,34-55.90N,140-09.02E,64,19.158
980,2022/5/18,16:19,34-56.02N,140-09.34E,64,19.181
981,2022/5/18,16:20,34-56.14N,140-09.63E,63,19.171
982,2022/5/18,16:21,34-56.27N,140-09.94E,64,19.196
983,2022/5/18,16:22,34-56.39N,140-10.25E,64,19.218
984,2022/5/18,16:23,34-56.51N,140-10.56E,63,19.185
985,2022/5/18,16:24,34-56.64N,140-10.88E,64,19.257
986,2022/5/18,16:25,34-56.77N,140-11.17E,60,19.125
987,2022/5/18,16:26,34-56.91N,140-11.47E,61,19.121
988,2022/5/18,16:27,34-57.05N,140-11.77E,61,19.057
989,2022/5/18,16:28,34-57.18N,140-12.07E,60,19.182
990,2022/5/18,16:29,34-57.33N,140-12.37E,60,19.145
991,2022/5/18,16:30,34-57.46N,140-12.66E,60,19.083
992,2022/5/18,16:31,34-57.61N,140-12.95E,59,19.028
993,2022/5/18,16:32,34-57.74N,140-13.24E,60,19.034
994,2022/5/18,16:33,34-57.90N,140-13.55E,60,19.013
995,2022/5/18,16:34,34-58.02N,140-13.85E,60,18.946
996,2022/5/18,16:35,34-58.16N,140-14.15E,60,18.905
997,2022/5/18,16:36,34-58.30N,140-14.45E,60,18.907
998,2022/5/18,16:37,34-58.44N,140-14.75E,62,19.03
999,2022/5/18,16:38,34-58.56N,140-15.08E,65,19.165
1000,2022/5/18,16:39,34-58.68N,140-15.40E,64,19.209
1001,2022/5/18,16:40,34-58.80N,140-15.71E,65,19.337
1002,2022/5/18,16:41,34-58.92N,140-16.04E,65,19.391
1003,2022/5/18,16:42,34-59.03N,140-16.35E,69,19.386
1004,2022/5/18,16:43,34-59.13N,140-16.69E,70,19.379
1005,2022/5/18,16:44,34-59.23N,140-17.03E,69,19.422
1006,2022/5/18,16:45,34-59.33N,140-17.34E,69,19.426
1007,2022/5/18,16:46,34-59.43N,140-17.68E,69,19.358
1008,2022/5/18,16:47,34-59.53N,140-18.00E,69,19.306
1009,2022/5/18,16:48,34-59.63N,140-18.34E,70,19.32
1010,2022/5/18,16:49,34-59.73N,140-18.68E,69,19.327
1011,2022/5/18,16:50,34-59.83N,140-18.99E,69,19.294
1012,2022/5/18,16:51,34-59.94N,140-19.33E,69,19.244
1013,2022/5/18,16:52,35-00.04N,140-19.65E,69,19.254
1014,2022/5/18,16:53,35-00.14N,140-19.99E,69,19.281
1015,2022/5/18,16:54,35-00.25N,140-20.32E,68,19.27
1016,2022/5/18,16:55,35-00.35N,140-20.64E,68,19.283
1017,2022/5/18,16:56,35-00.45N,140-20.98E,69,19.315
1018,2022/5/18,16:57,35-00.56N,140-21.31E,69,19.333
1019,2022/5/18,16:58,35-00.66N,140-21.65E,69,19.34
1020,2022/5/18,16:59,35-00.77N,140-21.99E,69,19.355
1021,2022/5/18,17:00,35-00.87N,140-22.31E,68,19.362
1022,2022/5/18,17:01,35-00.98N,140-22.65E,66,19.351
1023,2022/5/18,17:02,35-01.11N,140-22.96E,62,19.369
1024,2022/5/18,17:03,35-01.27N,140-23.33E,62,19.392
1025,2022/5/18,17:04,35-01.41N,140-23.65E,61,19.408
1026,2022/5/18,17:05,35-01.56N,140-23.95E,58,19.394
1027,2022/5/18,17:06,35-01.70N,140-24.22E,58,19.387
1028,2022/5/18,17:07,35-01.86N,140-24.53E,58,19.488
1029,2022/5/18,17:08,35-02.02N,140-24.84E,57,19.541
1030,2022/5/18,17:09,35-02.18N,140-25.15E,58,19.57
1031,2022/5/18,17:10,35-02.34N,140-25.47E,58,19.574
1032,2022/5/18,17:11,35-02.50N,140-25.79E,58,19.568
1033,2022/5/18,17:12,35-02.66N,140-26.10E,58,19.639
1034,2022/5/18,17:13,35-02.83N,140-26.42E,56,19.641
1035,2022/5/18,17:14,35-03.01N,140-26.72E,52,19.663
1036,2022/5/18,17:15,35-03.20N,140-27.01E,50,19.779
1037,2022/5/18,17:16,35-03.41N,140-27.29E,47,19.476
1038,2022/5/18,17:17,35-03.61N,140-27.56E,47,19.167
1039,2022/5/18,17:18,35-03.82N,140-27.84E,47,19.193
1040,2022/5/18,17:19,35-04.04N,140-28.10E,41,19.251
1041,2022/5/18,17:20,35-04.27N,140-28.31E,35,19.254
1042,2022/5/18,17:21,35-04.52N,140-28.52E,35,19.274
1043,2022/5/18,17:22,35-04.77N,140-28.74E,36,19.383
1044,2022/5/18,17:23,35-05.01N,140-28.96E,36,19.451
1045,2022/5/18,17:24,35-05.26N,140-29.18E,35,19.472
1046,2022/5/18,17:25,35-05.50N,140-29.39E,35,19.577
1047,2022/5/18,17:26,35-05.75N,140-29.61E,35,19.687
1048,2022/5/18,17:27,35-06.01N,140-29.83E,35,19.776
1049,2022/5/18,17:28,35-06.26N,140-30.05E,35,19.859
1050,2022/5/18,17:29,35-06.50N,140-30.27E,35,19.931
1051,2022/5/18,17:30,35-06.76N,140-30.49E,35,19.899
1052,2022/5/18,17:31,35-07.02N,140-30.71E,35,19.91
1053,2022/5/18,17:32,35-07.27N,140-30.93E,35,19.939
1054,2022/5/18,17:33,35-07.53N,140-31.15E,35,20.043
1055,2022/5/18,17:34,35-07.78N,140-31.37E,36,19.93
1056,2022/5/18,17:35,35-08.03N,140-31.60E,36,19.707
1057,2022/5/18,17:36,35-08.29N,140-31.83E,35,19.626
1058,2022/5/18,17:37,35-08.55N,140-32.05E,35,19.572
1059,2022/5/18,17:38,35-08.80N,140-32.27E,36,19.399
1060,2022/5/18,17:39,35-09.06N,140-32.50E,35,19.334
1061,2022/5/18,17:40,35-09.31N,140-32.72E,36,19.325
1062,2022/5/18,17:41,35-09.57N,140-32.95E,36,19.299
1063,2022/5/18,17:42,35-09.82N,140-33.17E,36,19.368
1064,2022/5/18,17:43,35-10.08N,140-33.40E,35,19.411
1065,2022/5/18,17:44,35-10.33N,140-33.63E,35,19.426
1066,2022/5/18,17:45,35-10.58N,140-33.85E,36,19.429
1067,2022/5/18,17:46,35-10.84N,140-34.08E,36,19.451
1068,2022/5/18,17:47,35-11.10N,140-34.31E,35,19.479
1069,2022/5/18,17:48,35-11.36N,140-34.53E,36,19.49
1070,2022/5/18,17:49,35-11.61N,140-34.75E,35,19.498
1071,2022/5/18,17:50,35-11.87N,140-34.98E,36,19.518
1072,2022/5/18,17:51,35-12.13N,140-35.21E,35,19.562
1073,2022/5/18,17:52,35-12.40N,140-35.45E,35,19.598
1074,2022/5/18,17:53,35-12.66N,140-35.67E,35,19.601
1075,2022/5/18,17:54,35-12.90N,140-35.88E,35,19.572
1076,2022/5/18,17:55,35-13.16N,140-36.11E,36,19.573
1077,2022/5/18,17:56,35-13.43N,140-36.34E,35,19.543
1078,2022/5/18,17:57,35-13.69N,140-36.57E,35,19.335
1079,2022/5/18,17:58,35-13.95N,140-36.80E,35,18.949
1080,2022/5/18,17:59,35-14.19N,140-37.00E,34,18.742
1081,2022/5/18,18:00,35-14.45N,140-37.22E,35,18.187
1082,2022/5/18,18:01,35-14.71N,140-37.45E,35,17.936
1083,2022/5/18,18:02,35-14.94N,140-37.65E,35,17.72
1084,2022/5/18,18:03,35-15.23N,140-37.89E,34,17.538
1085,2022/5/18,18:04,35-15.44N,140-38.06E,34,17.508
1086,2022/5/18,18:05,35-15.68N,140-38.26E,34,17.48
1087,2022/5/18,18:06,35-15.93N,140-38.47E,35,17.426
1088,2022/5/18,18:07,35-16.18N,140-38.69E,34,17.207
1089,2022/5/18,18:08,35-16.45N,140-38.91E,34,16.967
1090,2022/5/18,18:09,35-16.70N,140-39.11E,34,16.493
1091,2022/5/18,18:10,35-16.93N,140-39.31E,34,16.252
1092,2022/5/18,18:11,35-17.18N,140-39.51E,34,16.459
1093,2022/5/18,18:12,35-17.41N,140-39.74E,39,16.848
1094,2022/5/18,18:13,35-17.64N,140-39.96E,39,17.085
1095,2022/5/18,18:14,35-17.83N,140-40.15E,38,17.057
1096,2022/5/18,18:15,35-18.05N,140-40.37E,38,17.178
1097,2022/5/18,18:16,35-18.28N,140-40.60E,38,17.134
1098,2022/5/18,18:17,35-18.51N,140-40.81E,38,17.012
1099,2022/5/18,18:18,35-18.74N,140-41.04E,38,16.837
1100,2022/5/18,18:19,35-18.98N,140-41.27E,38,16.742
1101,2022/5/18,18:20,35-19.20N,140-41.49E,38,16.62
1102,2022/5/18,18:21,35-19.43N,140-41.71E,38,16.66
1103,2022/5/18,18:22,35-19.67N,140-41.94E,38,16.823
1104,2022/5/18,18:23,35-19.89N,140-42.16E,38,16.953
1105,2022/5/18,18:24,35-20.13N,140-42.38E,38,17.059
1106,2022/5/18,18:25,35-20.35N,140-42.60E,38,17.139
1107,2022/5/18,18:26,35-20.58N,140-42.83E,38,17.247
1108,2022/5/18,18:27,35-20.82N,140-43.05E,38,17.309
1109,2022/5/18,18:28,35-21.04N,140-43.27E,38,17.38
1110,2022/5/18,18:29,35-21.27N,140-43.49E,38,17.432
1111,2022/5/18,18:30,35-21.51N,140-43.73E,38,17.426
1112,2022/5/18,18:31,35-21.75N,140-43.96E,38,17.425
1113,2022/5/18,18:32,35-22.00N,140-44.19E,36,17.505
1114,2022/5/18,18:33,35-22.23N,140-44.36E,32,17.629
1115,2022/5/18,18:34,35-22.45N,140-44.54E,32,17.716
1116,2022/5/18,18:35,35-22.70N,140-44.73E,33,17.798
1117,2022/5/18,18:36,35-22.94N,140-44.92E,33,17.851
1118,2022/5/18,18:37,35-23.18N,140-45.11E,33,17.895
1119,2022/5/18,18:38,35-23.44N,140-45.32E,33,17.941
1120,2022/5/18,18:39,35-23.67N,140-45.51E,32,18.006
1121,2022/5/18,18:40,35-23.92N,140-45.70E,32,18.078
1122,2022/5/18,18:41,35-24.17N,140-45.89E,31,18.124
1123,2022/5/18,18:42,35-24.42N,140-46.07E,32,18.187
1124,2022/5/18,18:43,35-24.67N,140-46.27E,33,18.229
1125,2022/5/18,18:44,35-24.95N,140-46.50E,33,18.238
1126,2022/5/18,18:45,35-25.20N,140-46.70E,33,18.226
1127,2022/5/18,18:46,35-25.43N,140-46.88E,32,18.298
1128,2022/5/18,18:47,35-25.67N,140-47.07E,33,18.418
1129,2022/5/18,18:48,35-25.96N,140-47.30E,33,18.431
1130,2022/5/18,18:49,35-26.22N,140-47.50E,33,18.337
1131,2022/5/18,18:50,35-26.46N,140-47.70E,33,18.328
1132,2022/5/18,18:51,35-26.71N,140-47.91E,33,18.349
1133,2022/5/18,18:52,35-26.95N,140-48.10E,33,18.376
1134,2022/5/18,18:53,35-27.18N,140-48.28E,33,18.418
1135,2022/5/18,18:54,35-27.44N,140-48.49E,33,18.384
1136,2022/5/18,18:55,35-27.69N,140-48.69E,32,18.402
1137,2022/5/18,18:56,35-27.94N,140-48.89E,32,18.579
1138,2022/5/18,18:57,35-28.20N,140-49.08E,32,18.66
1139,2022/5/18,18:58,35-28.45N,140-49.27E,32,18.686
1140,2022/5/18,18:59,35-28.72N,140-49.48E,32,18.699
1141,2022/5/18,19:00,35-28.97N,140-49.67E,32,18.727
1142,2022/5/18,19:01,35-29.23N,140-49.87E,32,18.694
1143,2022/5/18,19:02,35-29.52N,140-50.09E,32,18.598
1144,2022/5/18,19:03,35-29.78N,140-50.29E,32,18.504
1145,2022/5/18,19:04,35-30.04N,140-50.50E,32,18.458
1146,2022/5/18,19:05,35-30.29N,140-50.70E,33,18.405
1147,2022/5/18,19:06,35-30.52N,140-50.88E,32,18.375
1148,2022/5/18,19:07,35-30.77N,140-51.07E,32,18.324
1149,2022/5/18,19:08,35-31.02N,140-51.27E,32,18.322
1150,2022/5/18,19:09,35-31.32N,140-51.50E,31,18.297
1151,2022/5/18,19:10,35-31.58N,140-51.70E,32,18.137
1152,2022/5/18,19:11,35-31.83N,140-51.90E,32,18.121
1153,2022/5/18,19:12,35-32.08N,140-52.09E,32,18.183
1154,2022/5/18,19:13,35-32.33N,140-52.28E,32,18.231
1155,2022/5/18,19:14,35-32.59N,140-52.47E,31,18.267
1156,2022/5/18,19:15,35-32.83N,140-52.66E,32,18.177
1157,2022/5/18,19:16,35-33.08N,140-52.85E,32,18.209
1158,2022/5/18,19:17,35-33.34N,140-53.03E,28,18.117
1159,2022/5/18,19:18,35-33.59N,140-53.19E,28,17.622
1160,2022/5/18,19:19,35-33.83N,140-53.34E,28,17.299
1161,2022/5/18,19:20,35-34.09N,140-53.52E,29,17.272
1162,2022/5/18,19:21,35-34.33N,140-53.69E,29,17.227
1163,2022/5/18,19:22,35-34.58N,140-53.86E,28,17.186
1164,2022/5/18,19:23,35-34.87N,140-54.06E,30,17.217
1165,2022/5/18,19:24,35-35.10N,140-54.28E,39,17.261
1166,2022/5/18,19:25,35-35.32N,140-54.51E,40,17.235
1167,2022/5/18,19:26,35-35.52N,140-54.72E,40,17.147
1168,2022/5/18,19:27,35-35.76N,140-54.96E,40,17.04
1169,2022/5/18,19:28,35-35.94N,140-55.16E,40,16.99
1170,2022/5/18,19:29,35-36.16N,140-55.39E,40,17.01
1171,2022/5/18,19:30,35-36.38N,140-55.61E,40,17.044
1172,2022/5/18,19:31,35-36.60N,140-55.84E,38,17.025